Wetbulb
17.55 17.97 18.94 20.75 21.40 20.83 20.07 20.30 22.51 22.86 21.88 19.82 19.19 19.07 19.13 19.19 19.18 19.67 20.08 20.08 20.71 21.25 21.73 21.79 22.23 22.15 21.57 20.56 20.48 20.44 20.28 20.12 19.81 21.32 23.00 23.31 21.61 20.51 19.91 19.77 19.67 19.51 19.56 20.05 20.08 20.72 21.29 21.37 21.94 22.79 23.61 23.92 23.58 23.11 22.77 22.89 21.56 20.89 20.49 19.91 20.32 20.18 19.76 19.62 19.90 20.04 20.10 20.27 21.03
17.13 17.88 20.01 24.18 25.14 23.63 21.62 21.35 22.33 22.86 22.44 20.63 20.07 19.36 18.94 19.17 19.44 19.69 19.75 19.62 20.91 21.57 21.93 22.57 22.00 21.11 20.47 20.47 21.03 20.85 20.38 20.10 19.57 20.32 21.22 20.97 20.28 19.87 19.73 19.83 19.55 19.79 20.16 20.39 20.26 21.14 22.02 21.48 21.79 22.59 23.44 23.81 23.23 22.79 22.55 22.91 21.71 20.64 19.64 18.91 19.99 20.46 20.66 20.54 20.56 20.52 20.59 20.68 20.77
16.88 17.65 18.83 20.40 20.41 20.12 19.71 19.57 19.24 18.74 18.39 18.44 19.00 19.13 19.19 19.40 19.91 20.32 20.65 20.93 20.63 20.67 21.31 22.57 21.59 20.95 20.54 20.30 20.55 20.40 20.16 20.02 19.73 19.97 20.36 20.61 20.34 20.08 20.00 20.27 19.58 20.17 21.04 21.57 20.73 21.19 21.81 21.49 22.28 23.36 24.03 23.76 22.71 22.33 22.19 22.03 21.69 20.79 19.87 19.29 20.75 21.43 21.63 21.66 21.31 21.19 21.25 21.43 20.71
16.65 16.86 17.18 17.55 17.48 17.35 17.67 18.73 17.85 17.16 17.09 18.18 18.01 18.34 18.98 19.68 20.36 20.81 20.79 20.18 19.95 20.42 21.09 21.57 21.29 21.47 21.59 21.35 20.73 20.34 20.59 21.95 22.04 21.71 21.19 20.99 20.62 20.27 19.88 19.83 19.67 19.79 20.03 20.23 20.22 20.60 21.01 21.08 22.49 23.32 23.24 22.11 21.45 21.49 21.91 22.26 21.28 21.08 21.09 21.07 21.81 21.87 21.73 21.93 21.70 21.58 21.56 21.31 20.73
16.53 16.65 16.90 17.13 16.99 16.90 16.98 17.29 17.14 17.05 17.36 18.22 18.59 19.05 19.46 19.89 20.36 20.40 20.40 20.88 21.28 21.64 21.47 20.28 21.41 22.53 22.95 22.41 21.02 20.23 20.11 20.76 23.89 23.67 21.97 20.70 20.43 20.31 20.13 19.58 19.78 20.08 20.36 20.58 20.73 21.07 21.16 20.68 22.54 22.97 22.57 21.84 22.16 22.16 21.72 20.86 20.48 20.62 21.16 22.13 22.34 22.24 22.02 21.85 21.65 21.54 21.39 21.24 20.86
16.60 16.41 16.35 16.46 16.50 16.57 16.73 16.92 16.83 16.98 17.33 18.13 18.28 18.34 18.86 20.18 20.46 20.63 20.73 21.05 21.34 20.85 20.76 22.00 23.64 24.77 24.63 22.32 21.01 20.36 20.12 19.83 21.04 21.00 20.38 20.04 20.59 20.42 20.07 19.83 19.83 20.20 20.79 21.28 21.72 21.55 21.26 20.93 22.51 22.98 22.96 23.03 22.32 21.81 21.21 19.89 20.43 20.74 21.07 21.63 22.04 22.10 21.90 21.36 21.48 21.37 20.98 20.45 19.83
16.64 16.29 15.99 15.94 16.06 16.22 16.43 16.59 16.59 16.66 16.99 17.58 17.61 17.63 17.93 18.76 19.01 19.01 19.42 20.67 21.10 21.46 22.42 24.87 24.37 23.82 22.86 20.72 20.57 20.42 20.36 20.65 20.38 19.93 19.85 20.60 20.61 20.56 20.51 20.62 20.22 20.44 21.13 22.25 22.19 21.94 21.46 20.67 22.13 23.08 23.77 24.59 23.89 22.67 21.54 21.07 20.85 20.80 20.80 20.88 21.57 21.83 21.60 20.88 21.09 21.05 20.50 19.21 18.45
16.22 16.46 16.52 16.47 16.32 16.29 16.35 16.57 16.83 17.12 17.65 18.38 17.99 17.83 17.80 17.84 18.13 18.61 19.25 20.07 20.82 21.58 22.51 23.73 21.68 20.62 20.24 20.08 20.32 20.49 20.40 20.03 20.32 20.24 20.21 20.63 20.28 20.22 20.21 20.06 20.45 21.15 22.01 22.75 22.19 21.59 21.26 21.41 22.41 22.65 22.69 23.06 23.23 22.83 21.97 20.85 20.30 20.11 20.09 20.12 20.98 21.33 21.37 21.09 20.71 20.60 20.15 18.80 17.73
15.94 16.34 16.73 16.77 16.75 16.66 16.70 16.80 17.06 17.48 17.91 18.00 17.88 17.85 17.97 18.22 18.40 18.74 19.37 20.36 21.98 22.49 22.38 22.02 20.77 20.01 19.75 19.68 19.88 20.16 20.36 20.49 20.33 20.42 20.54 20.54 20.40 20.45 20.49 20.51 21.24 22.31 23.09 23.08 22.25 21.14 20.58 21.57 22.40 22.51 22.53 22.86 22.67 22.37 21.78 20.68 20.06 19.61 19.73 20.21 20.77 21.03 21.09 21.12 20.53 20.27 19.94 18.97 17.70
16.15 16.21 16.33 16.57 16.80 17.31 17.60 17.13 17.23 17.49 17.66 17.61 17.71 17.82 19.05 22.54 22.20 21.16 20.76 22.16 22.95 22.40 21.37 20.58 20.09 19.79 19.66 19.49 19.82 20.15 20.42 20.69 20.68 20.34 20.31 20.85 21.20 20.94 20.61 21.00 21.83 22.63 23.11 23.01 22.26 21.37 20.90 21.59 22.01 22.02 21.98 22.11 21.77 21.39 21.00 20.59 20.01 19.58 19.72 20.84 20.94 20.56 20.27 20.45 20.50 20.43 20.23 19.83 18.22
16.60 16.61 16.62 16.87 17.12 18.23 18.80 17.56 17.83 18.23 18.45 17.93 17.84 17.79 18.80 21.76 21.33 21.20 21.41 22.21 21.51 20.53 19.81 19.79 19.55 19.48 19.60 19.93 20.24 20.60 21.00 21.27 21.19 20.84 20.47 20.53 21.20 21.04 20.64 20.97 21.82 22.20 22.21 21.97 21.47 21.66 22.05 22.26 21.98 21.54 21.42 21.78 21.47 21.18 20.95 20.55 20.14 19.80 19.77 20.60 20.47 20.01 19.60 19.72 20.27 20.57 20.62 20.34 18.60
16.80 16.88 17.06 17.25 17.31 17.85 18.16 17.53 17.83 18.23 18.52 18.20 18.06 17.97 18.05 18.34 18.58 19.84 20.97 20.76 19.95 19.61 19.62 19.74 19.63 19.46 19.77 20.75 20.65 21.35 21.92 21.20 20.77 20.71 20.71 20.65 20.53 20.49 20.68 21.26 22.01 22.13 22.01 21.71 21.53 21.95 22.42 22.17 21.71 21.30 21.08 21.10 21.65 21.75 21.42 20.79 20.42 20.14 19.99 20.14 20.01 19.76 19.49 19.60 20.17 20.86 21.20 20.82 19.06
17.05 17.27 17.29 17.29 17.27 17.21 17.31 17.29 17.38 17.48 17.67 17.71 17.71 17.91 18.20 18.45 19.12 20.09 20.42 19.36 19.42 19.69 19.89 19.91 20.27 20.24 20.29 20.77 20.96 21.12 21.22 21.18 20.87 21.03 21.22 21.16 21.08 21.11 21.26 21.56 22.14 22.52 22.61 22.43 22.28 22.30 22.22 21.74 21.31 20.97 20.85 20.85 21.51 21.79 21.67 21.04 20.70 20.42 20.27 20.16 19.85 19.82 19.89 20.01 20.77 21.29 21.48 20.75 19.46
17.07 17.28 17.42 17.25 17.14 17.14 17.24 17.25 17.46 17.60 17.58 17.23 17.28 17.57 17.78 17.87 19.19 20.25 20.46 19.10 19.09 19.29 19.60 19.84 21.05 21.79 22.04 21.23 21.20 21.05 21.00 21.25 21.10 20.87 20.91 21.26 21.33 21.45 21.45 21.37 21.31 21.85 22.34 22.51 22.51 22.09 21.69 21.47 21.23 21.05 20.86 20.71 21.03 21.36 21.53 21.35 21.16 21.00 20.70 20.38 20.03 20.27 20.71 21.12 21.68 21.86 21.61 20.49 19.55
16.99 17.22 17.40 17.27 17.14 17.17 17.26 17.19 17.66 17.91 17.83 17.33 17.25 17.23 17.37 17.55 19.15 20.59 20.91 19.30 19.13 19.45 19.86 20.00 21.14 22.01 22.36 21.76 21.24 20.99 20.91 21.08 20.88 20.68 20.67 20.96 21.09 21.10 20.94 20.63 20.38 20.84 21.60 22.09 22.20 22.02 21.66 21.25 21.13 21.04 20.92 20.77 20.85 21.07 21.35 21.62 21.69 21.59 21.41 21.00 21.03 21.43 21.82 22.15 22.29 22.23 21.77 20.63 19.49
17.13 17.30 17.40 17.29 17.25 17.21 17.27 17.24 17.75 17.97 17.85 17.48 17.30 17.24 17.31 17.57 18.75 20.08 20.67 19.85 20.09 20.36 20.50 20.19 20.69 20.94 21.29 22.14 22.01 21.61 21.15 20.99 20.69 20.46 20.32 20.38 20.52 20.57 20.36 20.12 20.20 20.53 21.06 21.47 21.76 21.83 21.76 21.52 21.46 21.23 20.96 20.87 20.91 21.08 21.40 21.68 21.91 21.95 21.79 21.47 21.67 22.08 22.51 22.79 22.88 22.68 22.11 21.27 20.24
17.32 17.42 17.50 17.40 17.34 17.28 17.29 17.19 17.55 17.77 17.73 17.48 17.28 17.31 17.54 17.99 18.64 20.16 21.61 22.11 21.69 21.12 20.46 20.18 20.68 20.87 21.09 21.93 22.42 21.95 21.26 21.02 20.73 20.58 20.38 20.35 20.15 20.13 20.11 20.19 20.46 20.65 20.79 20.91 21.05 21.23 21.32 21.41 21.52 21.43 21.17 21.08 21.14 21.36 21.56 21.85 22.13 22.20 22.11 21.83 22.02 22.42 22.99 23.56 23.54 23.21 22.50 21.58 20.72
17.54 17.58 17.56 17.53 17.45 17.44 17.41 17.22 17.34 17.44 17.49 17.41 17.31 17.41 17.73 18.26 18.70 19.74 21.04 22.18 21.30 20.37 19.87 20.05 20.39 20.42 20.38 20.30 20.85 21.38 21.65 21.23 20.90 20.75 20.57 20.31 20.05 20.07 20.14 20.39 20.80 20.87 20.79 20.73 20.70 20.82 20.88 20.98 21.14 21.29 21.44 21.41 21.56 21.73 21.94 22.13 22.43 22.52 22.39 22.17 22.45 23.02 23.51 23.72 23.53 23.21 22.54 21.50 20.84
17.82 17.73 17.71 17.68 17.65 17.71 18.04 18.81 18.37 17.98 17.66 17.52 17.61 17.82 18.01 18.09 18.26 18.63 19.21 19.68 20.50 20.34 20.00 20.09 20.16 20.21 20.09 19.89 19.96 21.16 22.21 21.76 20.87 20.46 20.29 20.24 20.16 20.22 20.37 20.59 20.68 20.71 20.65 20.53 20.51 20.50 20.57 20.61 20.91 21.06 21.31 21.49 21.70 21.87 22.09 22.17 22.46 22.61 22.57 22.52 23.21 23.76 23.93 23.63 23.48 23.21 22.64 21.59 20.84
18.11 18.07 17.97 18.02 17.98 17.97 18.22 19.14 18.81 18.26 17.98 17.99 17.98 18.00 18.04 18.17 18.21 18.36 18.68 19.23 20.47 20.21 19.63 19.41 19.82 19.97 20.00 19.86 19.81 20.22 21.01 21.86 20.79 20.35 20.22 20.32 20.33 20.33 20.42 20.59 20.51 20.51 20.49 20.35 20.29 20.10 20.06 20.21 20.65 20.84 21.11 21.36 21.58 21.71 21.89 22.06 22.26 22.36 22.59 22.96 24.11 24.33 24.15 23.84 23.67 23.22 22.61 21.46 20.73
18.44 18.36 18.29 18.20 18.17 18.06 18.00 18.16 18.18 18.07 18.07 18.11 18.04 18.00 18.02 18.24 18.34 18.40 18.82 19.91 20.27 19.75 19.05 18.87 19.22 19.41 19.61 19.80 19.86 19.95 20.42 22.09 21.18 20.64 20.42 20.57 20.64 20.81 20.92 21.15 20.79 20.77 20.67 20.46 20.15 19.80 19.53 19.89 20.34 20.76 21.10 21.45 21.71 21.78 21.88 22.13 22.24 22.45 23.00 24.27 24.99 24.87 24.21 23.71 23.47 22.94 22.27 21.51 21.16
18.64 18.48 18.44 18.47 18.41 18.32 18.10 17.95 18.00 18.11 18.29 18.44 18.40 18.35 18.33 18.43 18.78 19.06 19.30 19.65 19.65 19.21 18.89 19.06 19.15 19.21 19.48 19.83 20.06 20.30 20.82 22.13 21.48 21.16 21.10 21.05 21.06 21.37 21.54 21.62 20.69 20.10 19.75 19.49 19.42 19.20 19.15 19.62 20.32 20.82 21.26 21.79 21.85 22.08 22.40 22.73 22.87 23.34 24.20 25.57 25.24 24.37 23.46 22.80 22.64 22.32 22.02 21.75 21.68
18.81 18.69 18.63 18.66 18.58 19.68 20.68 19.91 18.85 18.49 18.52 18.69 18.53 18.44 18.48 18.85 19.15 19.17 18.95 18.55 19.51 19.56 19.31 19.28 19.46 19.48 19.54 19.89 20.00 20.13 20.46 20.92 20.99 21.10 21.16 20.93 20.64 20.56 20.60 20.64 19.57 19.01 19.01 19.57 19.56 19.59 19.84 20.63 21.42 22.09 22.65 23.21 23.58 24.08 24.65 25.06 25.35 25.81 26.25 26.17 24.41 22.89 21.92 21.82 21.98 22.11 22.22 22.14 22.14
19.10 19.13 19.23 19.27 18.83 19.23 19.74 19.48 18.98 18.72 18.71 18.66 18.62 18.59 18.78 19.19 19.30 19.12 18.68 18.16 18.54 18.45 18.60 19.62 20.05 20.00 19.80 19.91 19.74 19.77 19.93 20.10 20.35 20.43 20.42 20.31 20.13 19.80 19.51 19.55 19.27 19.32 19.70 20.42 22.01 23.40 24.43 25.30 25.55 26.06 26.77 27.42 27.94 28.32 28.64 28.76 28.60 28.47 27.68 25.74 23.30 21.82 21.07 21.07 21.67 22.07 22.36 22.39 22.57
19.23 19.78 20.17 19.81 19.35 19.05 18.81 18.75 18.70 18.58 18.48 18.48 18.59 18.74 18.98 19.30 19.26 18.99 18.66 18.35 18.25 18.16 18.29 18.68 18.98 19.49 20.09 20.42 20.29 20.25 20.11 19.76 19.72 19.76 19.72 19.60 19.54 19.42 19.45 19.91 20.25 20.27 20.76 22.45 26.94 29.80 31.39 31.67 31.20 30.68 30.37 30.52 30.63 30.66 30.71 30.49 30.09 29.26 27.86 25.55 23.48 21.86 20.76 20.17 21.14 21.92 22.46 22.64 22.67
19.41 19.91 20.25 19.94 19.61 19.29 18.89 18.67 18.47 18.35 18.26 18.34 18.38 18.73 18.98 19.15 19.15 18.84 18.40 18.23 18.24 18.13 18.16 18.43 18.81 20.64 22.39 22.23 21.23 20.49 20.11 19.99 19.69 19.26 19.01 19.23 19.15 19.17 19.48 20.30 20.80 20.67 21.55 25.20 29.42 31.89 33.36 34.28 34.51 33.74 32.56 31.36 31.43 31.45 31.49 31.35 30.68 29.37 27.45 25.10 23.93 22.70 21.40 20.51 21.15 21.98 22.68 23.12 23.08
19.72 20.05 20.21 20.03 19.44 19.08 18.76 18.49 18.29 18.19 18.22 18.25 18.24 18.57 18.87 18.85 18.99 18.59 18.05 17.90 17.84 17.85 17.89 18.24 18.46 21.58 24.04 22.48 20.42 19.28 19.17 19.88 19.29 18.80 18.53 18.61 18.83 19.02 19.46 20.50 20.86 21.30 23.16 27.69 31.07 32.93 34.06 34.83 35.35 35.23 34.45 32.60 32.37 32.06 31.81 31.57 30.58 28.78 26.60 24.78 23.97 23.25 22.64 21.99 22.08 22.70 23.36 23.62 23.23
20.13 20.30 20.18 19.72 19.23 18.84 18.43 17.96 17.76 17.73 17.67 17.75 17.90 18.15 18.37 18.26 17.95 17.76 17.73 17.80 17.85 17.96 18.19 18.56 19.76 21.14 21.67 20.40 19.41 18.93 18.94 19.22 19.37 19.44 19.22 18.84 19.14 19.28 19.63 20.67 21.00 22.84 26.08 30.57 32.37 33.52 34.36 35.01 35.51 35.92 35.71 34.61 33.17 32.50 32.11 31.76 30.63 28.69 26.61 25.14 24.53 24.20 24.07 24.21 24.51 24.36 24.04 23.58 22.90
20.27 20.29 19.99 19.39 19.04 18.52 17.90 17.45 17.35 17.36 17.49 17.37 17.46 17.77 18.02 18.03 17.92 17.85 17.83 17.99 18.10 18.29 18.77 19.90 21.25 20.99 20.11 19.50 19.56 19.48 19.09 18.54 19.35 19.48 19.37 19.03 19.20 19.66 20.31 21.18 21.86 24.34 27.82 31.72 32.83 33.68 34.44 35.13 35.71 36.28 36.56 36.39 34.54 33.19 32.35 31.76 30.33 28.78 27.33 26.03 25.22 25.06 25.18 25.46 25.35 24.88 24.10 23.44 22.48
19.94 19.95 19.65 19.11 18.51 17.94 17.49 17.31 17.40 17.40 17.48 17.65 17.71 17.69 17.76 17.86 17.80 17.76 17.82 18.02 18.17 18.94 19.96 21.04 20.60 19.98 19.67 19.71 19.43 19.38 19.51 19.85 19.97 19.59 18.95 18.64 19.31 20.36 21.60 23.06 22.80 24.45 27.54 31.52 32.86 33.89 34.70 35.42 35.96 36.49 36.85 37.12 35.42 33.75 32.38 31.64 29.97 28.72 27.69 26.71 24.85 24.50 24.83 25.10 25.22 24.80 24.04 23.53 22.58
19.45 19.44 19.14 18.66 18.06 17.59 17.40 17.29 17.27 17.25 17.36 17.80 17.48 17.48 17.57 17.70 17.67 17.80 18.20 18.64 19.22 20.87 22.14 21.58 20.13 19.26 18.89 19.14 19.04 19.03 19.29 19.85 19.79 19.53 19.24 19.14 21.32 22.33 22.49 22.36 22.06 24.11 27.56 31.54 33.04 34.19 35.04 35.72 36.13 36.50 36.98 37.55 35.99 34.08 32.38 31.22 29.68 28.52 27.42 25.78 24.96 24.80 25.27 25.97 25.90 25.22 24.32 23.60 22.93
19.04 18.95 18.78 18.44 17.93 17.61 17.35 17.21 17.14 17.12 17.15 17.03 17.02 17.31 17.62 17.67 17.84 18.19 18.85 19.80 20.60 20.89 20.81 20.20 19.28 18.68 18.41 18.41 18.60 18.71 18.88 19.22 19.67 20.31 20.97 21.43 21.46 21.42 21.62 22.40 22.29 24.45 28.08 31.99 33.40 34.46 35.22 35.78 36.16 36.52 37.08 37.86 36.36 34.11 31.76 30.15 29.03 27.89 26.34 23.79 23.44 23.89 24.87 26.19 26.30 25.75 24.89 24.08 23.43
18.74 18.65 18.59 18.45 18.09 17.77 17.50 17.17 17.16 17.08 17.04 17.11 17.25 17.51 17.74 17.92 18.03 18.24 18.76 19.69 20.41 20.10 19.31 19.09 18.76 18.54 18.47 18.47 18.74 18.75 18.90 19.65 20.65 21.96 23.03 23.16 22.03 21.48 21.65 22.69 22.83 25.60 29.50 32.59 33.78 34.63 35.23 35.74 36.05 36.59 37.26 37.99 35.71 33.15 30.68 28.77 28.37 27.23 25.35 22.72 23.19 24.08 24.90 25.23 25.84 25.84 25.45 24.73 23.98
18.68 18.65 18.63 18.55 18.48 18.15 17.73 17.33 17.29 17.25 17.21 17.26 17.53 17.75 17.86 17.85 17.96 18.08 18.66 20.20 20.52 20.21 19.66 19.54 19.27 19.07 19.04 19.14 19.01 18.93 19.79 22.52 22.07 21.29 20.64 20.52 20.45 20.90 21.62 22.52 23.26 26.62 30.52 32.89 33.86 34.59 35.19 35.67 36.03 36.75 37.38 37.43 34.29 31.20 28.72 27.31 27.24 25.62 23.60 22.36 23.77 24.63 24.98 24.82 25.16 25.53 25.63 25.12 24.68
18.78 18.82 18.77 18.70 18.54 18.24 17.92 17.61 17.46 17.40 17.40 17.46 17.72 17.77 17.77 17.71 17.79 17.95 18.81 21.10 21.87 21.08 20.00 19.62 19.31 19.10 18.99 18.83 18.71 19.09 19.90 21.46 20.86 20.37 20.10 20.29 20.52 21.13 21.88 22.41 23.27 26.76 30.69 32.82 33.67 34.38 34.99 35.49 36.07 36.90 37.20 35.92 31.88 28.85 26.81 25.68 25.25 23.71 22.20 22.15 23.67 24.12 24.06 23.89 23.92 24.81 25.53 25.53 25.21
19.00 19.09 19.02 18.85 18.48 18.19 18.00 17.75 17.54 17.40 17.42 17.56 17.78 17.72 17.64 17.68 17.84 18.24 19.58 22.35 22.29 21.08 19.68 19.19 19.02 18.96 18.82 18.71 18.51 19.60 20.42 19.70 19.71 19.90 20.41 21.20 21.23 21.18 21.31 21.83 22.73 26.10 30.01 32.52 33.30 34.06 34.71 35.30 36.08 37.06 36.85 33.99 29.60 27.02 25.64 24.95 23.84 22.56 21.81 22.08 23.14 23.57 23.52 23.10 23.33 24.58 25.72 25.61 25.57
19.21 19.24 19.07 18.84 18.49 18.22 18.05 17.88 17.65 17.50 17.50 17.67 17.65 17.66 17.60 17.78 17.99 18.37 19.50 21.99 20.41 19.48 18.93 18.84 18.55 18.37 18.42 18.54 18.57 19.09 19.45 19.29 19.22 19.75 20.87 22.41 22.16 21.55 21.21 21.85 22.32 25.09 28.68 31.86 32.85 33.70 34.40 35.06 36.06 37.00 36.21 32.16 27.31 25.25 24.59 23.98 23.02 22.44 21.96 21.65 22.07 22.32 22.62 23.27 23.83 24.80 25.59 25.56 26.34
19.39 19.32 19.19 18.92 18.59 18.38 18.17 17.96 17.71 17.63 17.63 17.77 17.73 17.72 17.81 18.13 18.37 18.71 19.75 22.27 20.07 19.12 18.75 18.71 18.39 18.32 18.29 18.37 18.81 19.02 19.10 19.22 19.92 20.51 20.93 21.41 21.27 21.32 21.65 22.26 22.73 24.70 27.57 30.96 32.36 33.43 34.16 34.87 36.00 36.85 36.02 32.01 26.58 24.62 24.14 23.34 22.94 22.67 22.19 21.33 21.22 21.17 21.57 23.01 24.34 25.05 25.48 26.20 28.61
19.64 19.41 19.24 19.09 18.80 18.53 18.32 18.00 17.94 17.90 17.92 17.98 17.94 17.94 18.08 18.39 18.67 19.44 20.71 22.29 20.22 19.26 18.91 18.73 18.50 18.34 18.58 19.70 20.16 19.94 19.38 19.12 19.99 20.83 21.12 20.38 20.94 22.89 24.45 24.07 23.46 24.45 26.80 30.26 31.90 33.05 33.88 34.70 35.96 37.00 36.65 33.48 27.26 25.01 24.53 23.67 24.11 23.52 22.16 20.39 20.50 20.35 20.62 21.88 23.32 24.19 24.98 26.20 29.04
19.89 19.67 19.38 19.10 18.96 18.73 18.48 18.26 18.26 18.38 18.47 18.32 18.30 18.38 18.54 18.96 19.89 21.02 21.75 21.54 19.97 19.24 18.97 18.71 18.36 18.47 19.55 22.42 21.72 20.33 19.20 19.16 19.01 19.57 20.33 20.96 22.50 25.40 27.24 25.35 23.39 23.55 25.55 29.13 31.34 32.79 33.79 34.53 35.94 37.22 37.13 34.51 27.97 25.68 25.31 24.75 25.77 24.68 22.32 19.52 20.18 20.53 20.77 21.17 22.04 22.76 23.46 24.10 26.00
19.98 19.74 19.55 19.33 19.17 18.96 18.74 18.49 18.58 18.66 18.74 18.73 18.72 19.18 19.90 20.86 21.16 21.19 20.77 19.74 19.25 19.02 18.98 18.99 18.53 18.46 19.54 22.45 21.72 20.07 18.81 18.69 18.99 19.02 19.60 21.60 22.77 24.88 25.92 23.88 22.29 22.03 23.53 26.90 30.47 32.57 33.69 34.43 35.80 37.13 37.43 35.70 29.30 26.68 26.10 25.71 26.96 25.27 22.21 19.05 20.05 20.77 21.10 21.15 21.42 21.60 21.79 21.99 21.95
MSLP
1030.58 1030.62 1030.62 1030.62 1030.66 1030.70 1030.74 1030.70 1030.62 1030.62 1030.70 1030.74 1030.78 1030.78 1030.74 1030.74 1030.70 1030.62 1030.54 1030.50 1030.46 1030.34 1030.26 1030.18 1030.10 1030.02 1029.90 1029.86 1029.78 1029.70 1029.62 1029.50 1029.46 1029.34 1029.18 1029.06 1028.98 1028.90 1028.78 1028.70 1028.62 1028.54 1028.46 1028.34 1028.22 1028.10 1028.02 1027.90 1027.82 1027.70 1027.54 1027.42 1027.30 1027.18 1027.02 1026.90 1026.78 1026.66 1026.50 1026.34 1026.18 1025.98 1025.82 1025.70 1025.50 1025.26 1025.06 1024.90 1024.70
1030.46 1030.46 1030.46 1030.42 1030.42 1030.50 1030.54 1030.58 1030.54 1030.50 1030.50 1030.50 1030.54 1030.54 1030.54 1030.54 1030.50 1030.50 1030.42 1030.34 1030.26 1030.18 1030.06 1029.98 1029.90 1029.86 1029.78 1029.66 1029.58 1029.54 1029.50 1029.34 1029.30 1029.18 1029.06 1028.94 1028.86 1028.74 1028.62 1028.54 1028.46 1028.34 1028.30 1028.22 1028.06 1027.94 1027.82 1027.74 1027.66 1027.58 1027.38 1027.22 1027.10 1027.02 1026.86 1026.70 1026.62 1026.54 1026.38 1026.22 1026.06 1025.86 1025.66 1025.50 1025.26 1025.06 1024.86 1024.66 1024.50
1030.30 1030.34 1030.34 1030.38 1030.38 1030.46 1030.50 1030.50 1030.50 1030.46 1030.46 1030.42 1030.38 1030.34 1030.34 1030.34 1030.34 1030.26 1030.22 1030.14 1030.06 1030.06 1029.98 1029.90 1029.78 1029.70 1029.62 1029.54 1029.46 1029.38 1029.30 1029.22 1029.10 1029.02 1028.90 1028.78 1028.66 1028.58 1028.50 1028.38 1028.30 1028.22 1028.06 1027.98 1027.90 1027.82 1027.70 1027.62 1027.50 1027.38 1027.22 1027.06 1026.98 1026.86 1026.70 1026.54 1026.46 1026.38 1026.30 1026.10 1025.90 1025.74 1025.54 1025.30 1025.06 1024.86 1024.66 1024.46 1024.30
1030.14 1030.22 1030.22 1030.26 1030.34 1030.34 1030.34 1030.34 1030.34 1030.34 1030.34 1030.26 1030.22 1030.22 1030.22 1030.18 1030.14 1030.06 1030.06 1029.98 1029.90 1029.90 1029.82 1029.74 1029.62 1029.50 1029.46 1029.38 1029.30 1029.22 1029.10 1028.98 1028.90 1028.82 1028.74 1028.62 1028.50 1028.42 1028.34 1028.22 1028.18 1028.06 1027.94 1027.86 1027.78 1027.66 1027.54 1027.46 1027.34 1027.22 1027.10 1026.98 1026.90 1026.78 1026.58 1026.42 1026.34 1026.22 1026.10 1025.90 1025.78 1025.62 1025.38 1025.14 1024.90 1024.70 1024.50 1024.30 1024.14
1030.02 1030.06 1030.06 1030.10 1030.14 1030.14 1030.14 1030.14 1030.18 1030.14 1030.14 1030.10 1030.10 1030.06 1030.06 1030.02 1029.98 1029.94 1029.90 1029.86 1029.78 1029.70 1029.62 1029.58 1029.50 1029.38 1029.26 1029.22 1029.14 1029.06 1028.94 1028.86 1028.70 1028.62 1028.58 1028.50 1028.34 1028.26 1028.18 1028.10 1028.02 1027.90 1027.78 1027.70 1027.58 1027.46 1027.34 1027.30 1027.18 1027.06 1026.94 1026.82 1026.70 1026.58 1026.42 1026.34 1026.22 1026.10 1025.90 1025.74 1025.58 1025.42 1025.22 1024.98 1024.78 1024.58 1024.42 1024.22 1024.02
1029.82 1029.90 1029.90 1029.90 1029.90 1029.94 1029.98 1029.98 1029.98 1029.98 1029.94 1029.94 1029.94 1029.98 1029.94 1029.90 1029.82 1029.78 1029.78 1029.70 1029.62 1029.54 1029.50 1029.42 1029.30 1029.14 1029.06 1029.02 1028.94 1028.90 1028.82 1028.74 1028.62 1028.54 1028.50 1028.38 1028.22 1028.10 1028.06 1027.94 1027.86 1027.74 1027.62 1027.50 1027.38 1027.26 1027.22 1027.14 1027.02 1026.90 1026.74 1026.62 1026.50 1026.34 1026.22 1026.22 1026.06 1025.90 1025.74 1025.54 1025.34 1025.18 1025.02 1024.90 1024.66 1024.50 1024.34 1024.18 1023.98
1029.66 1029.70 1029.78 1029.78 1029.78 1029.82 1029.82 1029.82 1029.82 1029.82 1029.82 1029.82 1029.86 1029.86 1029.82 1029.74 1029.70 1029.62 1029.62 1029.50 1029.46 1029.38 1029.30 1029.18 1029.10 1029.02 1028.94 1028.94 1028.86 1028.78 1028.66 1028.62 1028.50 1028.42 1028.34 1028.22 1028.06 1027.94 1027.86 1027.78 1027.66 1027.54 1027.46 1027.30 1027.22 1027.10 1027.02 1026.94 1026.86 1026.70 1026.54 1026.38 1026.26 1026.14 1026.06 1025.94 1025.86 1025.78 1025.58 1025.34 1025.14 1024.98 1024.86 1024.74 1024.54 1024.38 1024.26 1024.10 1023.94
1029.50 1029.50 1029.58 1029.62 1029.62 1029.66 1029.66 1029.66 1029.66 1029.70 1029.70 1029.66 1029.70 1029.66 1029.62 1029.58 1029.54 1029.50 1029.42 1029.34 1029.34 1029.22 1029.14 1029.02 1028.98 1028.94 1028.90 1028.82 1028.74 1028.62 1028.58 1028.50 1028.34 1028.26 1028.18 1028.06 1027.94 1027.82 1027.74 1027.62 1027.54 1027.42 1027.30 1027.14 1027.06 1026.94 1026.82 1026.78 1026.62 1026.50 1026.38 1026.22 1026.10 1025.98 1025.82 1025.74 1025.66 1025.54 1025.38 1025.22 1024.94 1024.78 1024.66 1024.54 1024.42 1024.26 1024.14 1023.98 1023.82
1029.34 1029.38 1029.38 1029.42 1029.46 1029.50 1029.50 1029.50 1029.50 1029.54 1029.54 1029.54 1029.50 1029.50 1029.46 1029.42 1029.34 1029.34 1029.30 1029.22 1029.10 1029.02 1028.94 1028.90 1028.82 1028.78 1028.74 1028.66 1028.62 1028.50 1028.42 1028.34 1028.22 1028.10 1028.02 1027.90 1027.82 1027.70 1027.58 1027.50 1027.34 1027.22 1027.06 1026.94 1026.86 1026.78 1026.70 1026.62 1026.46 1026.34 1026.22 1026.10 1025.94 1025.78 1025.62 1025.54 1025.50 1025.34 1025.18 1024.94 1024.74 1024.50 1024.34 1024.26 1024.22 1024.06 1023.94 1023.82 1023.66
1029.18 1029.22 1029.26 1029.30 1029.30 1029.30 1029.34 1029.34 1029.34 1029.34 1029.38 1029.38 1029.34 1029.30 1029.22 1029.14 1029.10 1029.06 1029.06 1028.94 1028.90 1028.82 1028.82 1028.78 1028.70 1028.62 1028.58 1028.54 1028.46 1028.38 1028.26 1028.18 1028.06 1027.98 1027.90 1027.78 1027.66 1027.58 1027.50 1027.34 1027.18 1027.02 1026.86 1026.78 1026.66 1026.62 1026.54 1026.42 1026.26 1026.14 1025.98 1025.90 1025.78 1025.62 1025.50 1025.34 1025.22 1025.10 1024.90 1024.66 1024.46 1024.30 1024.14 1023.98 1023.90 1023.78 1023.70 1023.54 1023.42
1028.98 1029.02 1029.06 1029.10 1029.14 1029.10 1029.14 1029.22 1029.22 1029.22 1029.22 1029.22 1029.18 1029.14 1029.06 1028.98 1028.90 1028.90 1028.82 1028.78 1028.78 1028.74 1028.66 1028.62 1028.58 1028.50 1028.46 1028.34 1028.26 1028.18 1028.06 1028.02 1027.90 1027.78 1027.70 1027.62 1027.50 1027.42 1027.30 1027.18 1027.06 1026.90 1026.74 1026.62 1026.54 1026.46 1026.34 1026.22 1026.10 1025.94 1025.78 1025.66 1025.58 1025.46 1025.26 1025.10 1024.98 1024.82 1024.62 1024.42 1024.22 1024.06 1023.90 1023.66 1023.54 1023.50 1023.42 1023.30 1023.18
1028.78 1028.82 1028.90 1028.90 1028.94 1028.98 1029.06 1029.10 1029.10 1029.06 1029.06 1029.06 1028.98 1028.94 1028.90 1028.86 1028.82 1028.74 1028.66 1028.66 1028.66 1028.62 1028.50 1028.42 1028.38 1028.38 1028.30 1028.18 1028.10 1027.98 1027.90 1027.82 1027.74 1027.62 1027.54 1027.42 1027.34 1027.22 1027.10 1026.98 1026.86 1026.74 1026.62 1026.46 1026.34 1026.26 1026.14 1026.02 1025.90 1025.78 1025.62 1025.46 1025.34 1025.22 1025.06 1024.90 1024.70 1024.54 1024.34 1024.06 1023.90 1023.74 1023.54 1023.34 1023.22 1023.18 1023.10 1022.98 1022.90
1028.62 1028.66 1028.70 1028.74 1028.78 1028.86 1028.94 1028.94 1028.94 1028.94 1028.90 1028.86 1028.82 1028.78 1028.74 1028.66 1028.62 1028.62 1028.58 1028.54 1028.50 1028.42 1028.34 1028.26 1028.22 1028.18 1028.14 1028.02 1027.90 1027.86 1027.78 1027.66 1027.58 1027.50 1027.38 1027.26 1027.14 1027.06 1026.90 1026.78 1026.62 1026.54 1026.42 1026.26 1026.18 1026.06 1025.94 1025.82 1025.70 1025.58 1025.42 1025.26 1025.06 1024.90 1024.78 1024.62 1024.46 1024.26 1024.02 1023.78 1023.54 1023.34 1023.14 1022.98 1022.90 1022.90 1022.82 1022.74 1022.62
1028.42 1028.50 1028.54 1028.62 1028.66 1028.74 1028.78 1028.78 1028.78 1028.78 1028.78 1028.74 1028.66 1028.62 1028.54 1028.50 1028.46 1028.42 1028.38 1028.38 1028.30 1028.22 1028.18 1028.10 1028.06 1027.94 1027.90 1027.82 1027.74 1027.66 1027.62 1027.50 1027.42 1027.34 1027.22 1027.10 1026.98 1026.86 1026.74 1026.62 1026.50 1026.34 1026.22 1026.06 1025.94 1025.86 1025.74 1025.62 1025.50 1025.38 1025.26 1025.06 1024.86 1024.62 1024.50 1024.34 1024.14 1023.90 1023.66 1023.42 1023.18 1022.90 1022.74 1022.62 1022.62 1022.62 1022.62 1022.50 1022.38
1028.22 1028.30 1028.34 1028.46 1028.50 1028.58 1028.62 1028.62 1028.62 1028.62 1028.62 1028.54 1028.50 1028.46 1028.38 1028.38 1028.30 1028.26 1028.22 1028.22 1028.10 1028.06 1028.02 1027.98 1027.90 1027.78 1027.66 1027.62 1027.58 1027.50 1027.42 1027.34 1027.26 1027.14 1027.06 1026.90 1026.78 1026.70 1026.58 1026.46 1026.34 1026.18 1026.06 1025.90 1025.78 1025.62 1025.54 1025.42 1025.30 1025.18 1025.06 1024.86 1024.62 1024.34 1024.14 1023.90 1023.70 1023.46 1023.22 1022.98 1022.78 1022.50 1022.34 1022.34 1022.42 1022.46 1022.42 1022.30 1022.18
1028.06 1028.10 1028.22 1028.30 1028.34 1028.38 1028.42 1028.42 1028.42 1028.42 1028.42 1028.34 1028.34 1028.26 1028.22 1028.22 1028.14 1028.06 1028.06 1028.02 1027.94 1027.90 1027.86 1027.78 1027.70 1027.62 1027.50 1027.42 1027.34 1027.34 1027.26 1027.18 1027.06 1026.98 1026.90 1026.78 1026.62 1026.50 1026.38 1026.26 1026.14 1025.98 1025.82 1025.70 1025.54 1025.42 1025.30 1025.22 1025.06 1024.94 1024.78 1024.62 1024.34 1024.06 1023.78 1023.50 1023.26 1022.98 1022.74 1022.50 1022.30 1022.14 1022.06 1022.14 1022.22 1022.22 1022.14 1021.98 1021.86
1027.86 1027.90 1028.02 1028.06 1028.14 1028.18 1028.22 1028.22 1028.22 1028.22 1028.22 1028.22 1028.14 1028.10 1028.06 1028.06 1027.98 1027.90 1027.86 1027.78 1027.78 1027.74 1027.66 1027.62 1027.50 1027.46 1027.34 1027.22 1027.18 1027.10 1027.06 1027.02 1026.90 1026.78 1026.70 1026.62 1026.50 1026.34 1026.22 1026.06 1025.90 1025.78 1025.62 1025.50 1025.34 1025.18 1025.06 1024.90 1024.78 1024.66 1024.50 1024.30 1024.06 1023.74 1023.46 1023.18 1022.90 1022.62 1022.34 1022.06 1021.86 1021.78 1021.86 1021.94 1022.02 1021.94 1021.78 1021.62 1021.50
1027.66 1027.74 1027.78 1027.86 1027.90 1027.98 1027.98 1028.06 1028.06 1028.06 1028.06 1028.02 1027.98 1027.94 1027.90 1027.82 1027.82 1027.78 1027.66 1027.58 1027.58 1027.58 1027.50 1027.42 1027.34 1027.26 1027.18 1027.10 1027.06 1026.94 1026.90 1026.82 1026.70 1026.62 1026.50 1026.38 1026.26 1026.14 1025.98 1025.82 1025.66 1025.54 1025.38 1025.26 1025.10 1024.94 1024.78 1024.62 1024.50 1024.34 1024.18 1023.94 1023.66 1023.34 1023.10 1022.82 1022.58 1022.26 1021.98 1021.70 1021.54 1021.50 1021.62 1021.74 1021.74 1021.62 1021.42 1021.30 1021.22
1027.46 1027.50 1027.58 1027.62 1027.70 1027.74 1027.78 1027.78 1027.82 1027.82 1027.82 1027.78 1027.78 1027.78 1027.70 1027.66 1027.62 1027.58 1027.54 1027.50 1027.38 1027.34 1027.34 1027.26 1027.18 1027.06 1026.98 1026.90 1026.86 1026.78 1026.62 1026.62 1026.50 1026.38 1026.30 1026.18 1026.06 1025.90 1025.78 1025.58 1025.42 1025.26 1025.14 1024.98 1024.86 1024.70 1024.54 1024.38 1024.22 1024.06 1023.86 1023.58 1023.30 1022.98 1022.74 1022.50 1022.22 1021.94 1021.62 1021.38 1021.22 1021.22 1021.34 1021.42 1021.34 1021.18 1021.02 1020.90 1020.86
1027.22 1027.30 1027.34 1027.38 1027.46 1027.50 1027.58 1027.58 1027.62 1027.62 1027.62 1027.62 1027.62 1027.58 1027.54 1027.50 1027.46 1027.42 1027.38 1027.30 1027.18 1027.14 1027.14 1027.06 1027.06 1026.94 1026.82 1026.70 1026.62 1026.54 1026.46 1026.34 1026.30 1026.22 1026.06 1025.90 1025.82 1025.66 1025.50 1025.34 1025.14 1024.98 1024.86 1024.74 1024.58 1024.46 1024.34 1024.18 1023.94 1023.74 1023.50 1023.22 1022.94 1022.66 1022.38 1022.14 1021.86 1021.58 1021.30 1021.06 1020.94 1020.98 1021.02 1020.98 1020.86 1020.74 1020.62 1020.58 1020.54
1026.90 1026.98 1027.06 1027.10 1027.22 1027.30 1027.34 1027.34 1027.38 1027.42 1027.42 1027.42 1027.42 1027.38 1027.34 1027.34 1027.30 1027.26 1027.18 1027.06 1026.98 1026.94 1026.94 1026.90 1026.86 1026.78 1026.66 1026.54 1026.46 1026.34 1026.22 1026.10 1026.06 1025.98 1025.86 1025.70 1025.58 1025.42 1025.26 1025.06 1024.90 1024.74 1024.58 1024.46 1024.34 1024.22 1024.06 1023.90 1023.62 1023.38 1023.10 1022.82 1022.58 1022.30 1022.02 1021.74 1021.46 1021.14 1020.90 1020.66 1020.62 1020.62 1020.62 1020.54 1020.50 1020.42 1020.34 1020.30 1020.22
1026.62 1026.74 1026.78 1026.90 1026.98 1027.06 1027.10 1027.18 1027.18 1027.22 1027.22 1027.22 1027.22 1027.22 1027.18 1027.14 1027.10 1027.02 1026.94 1026.86 1026.82 1026.78 1026.74 1026.70 1026.62 1026.58 1026.50 1026.38 1026.30 1026.18 1026.02 1025.90 1025.82 1025.74 1025.62 1025.46 1025.30 1025.14 1024.98 1024.82 1024.70 1024.54 1024.38 1024.22 1024.06 1023.94 1023.78 1023.58 1023.30 1022.98 1022.70 1022.42 1022.14 1021.82 1021.54 1021.26 1020.98 1020.66 1020.38 1020.22 1020.22 1020.22 1020.18 1020.14 1020.14 1020.14 1020.10 1020.06 1020.02
1026.42 1026.50 1026.58 1026.66 1026.78 1026.82 1026.86 1026.90 1026.98 1027.06 1027.06 1027.06 1027.06 1027.06 1027.02 1026.94 1026.90 1026.82 1026.78 1026.74 1026.62 1026.58 1026.54 1026.50 1026.38 1026.34 1026.26 1026.18 1026.06 1025.98 1025.86 1025.74 1025.62 1025.46 1025.34 1025.22 1025.06 1024.90 1024.74 1024.62 1024.50 1024.38 1024.22 1024.06 1023.86 1023.74 1023.50 1023.22 1022.90 1022.54 1022.22 1021.90 1021.62 1021.30 1020.94 1020.62 1020.34 1020.06 1019.86 1019.78 1019.78 1019.78 1019.74 1019.74 1019.78 1019.82 1019.82 1019.82 1019.78
1026.22 1026.30 1026.38 1026.50 1026.54 1026.62 1026.70 1026.78 1026.82 1026.86 1026.86 1026.86 1026.82 1026.82 1026.82 1026.78 1026.70 1026.62 1026.58 1026.54 1026.50 1026.42 1026.34 1026.26 1026.18 1026.10 1026.02 1025.94 1025.90 1025.78 1025.70 1025.62 1025.46 1025.26 1025.10 1024.98 1024.86 1024.74 1024.58 1024.46 1024.34 1024.18 1023.98 1023.82 1023.62 1023.42 1023.14 1022.78 1022.34 1021.98 1021.62 1021.34 1021.02 1020.66 1020.30 1019.98 1019.78 1019.62 1019.54 1019.50 1019.50 1019.50 1019.50 1019.50 1019.46 1019.50 1019.50 1019.54 1019.54
1026.02 1026.06 1026.18 1026.30 1026.34 1026.42 1026.50 1026.58 1026.62 1026.66 1026.66 1026.66 1026.66 1026.62 1026.62 1026.62 1026.54 1026.50 1026.42 1026.38 1026.30 1026.22 1026.14 1026.06 1025.98 1025.90 1025.86 1025.78 1025.66 1025.58 1025.50 1025.38 1025.26 1025.14 1024.98 1024.82 1024.62 1024.50 1024.38 1024.22 1024.06 1023.90 1023.70 1023.50 1023.26 1022.90 1022.50 1022.10 1021.78 1021.42 1021.10 1020.78 1020.50 1020.14 1019.82 1019.62 1019.54 1019.50 1019.38 1019.34 1019.34 1019.42 1019.42 1019.42 1019.34 1019.22 1019.22 1019.22 1019.30
1025.82 1025.90 1025.94 1026.06 1026.14 1026.22 1026.30 1026.34 1026.42 1026.50 1026.50 1026.50 1026.50 1026.50 1026.50 1026.42 1026.34 1026.30 1026.26 1026.18 1026.10 1026.02 1025.94 1025.86 1025.82 1025.74 1025.62 1025.54 1025.46 1025.38 1025.26 1025.18 1025.06 1024.94 1024.82 1024.62 1024.50 1024.34 1024.18 1024.02 1023.82 1023.62 1023.50 1023.22 1022.90 1022.50 1022.06 1021.66 1021.30 1020.98 1020.70 1020.38 1020.06 1019.78 1019.54 1019.38 1019.34 1019.34 1019.26 1019.30 1019.34 1019.34 1019.38 1019.34 1019.22 1019.06 1018.98 1018.94 1019.06
1025.62 1025.66 1025.74 1025.78 1025.90 1026.02 1026.06 1026.14 1026.22 1026.26 1026.30 1026.30 1026.34 1026.30 1026.26 1026.22 1026.18 1026.14 1026.10 1026.02 1025.90 1025.82 1025.78 1025.70 1025.62 1025.50 1025.38 1025.34 1025.30 1025.22 1025.10 1024.94 1024.82 1024.74 1024.62 1024.50 1024.34 1024.18 1023.98 1023.74 1023.54 1023.38 1023.22 1022.90 1022.50 1022.14 1021.78 1021.34 1020.98 1020.62 1020.34 1020.06 1019.78 1019.54 1019.38 1019.30 1019.26 1019.26 1019.26 1019.30 1019.34 1019.34 1019.30 1019.22 1019.06 1018.86 1018.74 1018.74 1018.82
1025.34 1025.42 1025.50 1025.62 1025.74 1025.78 1025.86 1025.94 1026.02 1026.06 1026.06 1026.10 1026.14 1026.14 1026.10 1026.06 1026.06 1026.02 1025.90 1025.82 1025.78 1025.66 1025.62 1025.54 1025.42 1025.30 1025.22 1025.22 1025.14 1025.06 1024.90 1024.78 1024.62 1024.50 1024.42 1024.30 1024.18 1023.98 1023.78 1023.54 1023.34 1023.10 1022.86 1022.50 1022.18 1021.82 1021.50 1021.10 1020.74 1020.34 1020.02 1019.70 1019.54 1019.46 1019.34 1019.22 1019.22 1019.22 1019.22 1019.22 1019.18 1019.14 1019.06 1018.90 1018.62 1018.46 1018.46 1018.54 1018.66
1025.06 1025.14 1025.26 1025.42 1025.50 1025.58 1025.66 1025.78 1025.78 1025.82 1025.86 1025.90 1025.94 1025.94 1025.94 1025.94 1025.90 1025.82 1025.78 1025.66 1025.58 1025.50 1025.46 1025.34 1025.22 1025.14 1025.10 1025.06 1024.94 1024.82 1024.70 1024.62 1024.46 1024.34 1024.22 1024.06 1023.90 1023.74 1023.54 1023.34 1023.06 1022.78 1022.54 1022.22 1021.94 1021.62 1021.26 1020.90 1020.50 1020.14 1019.78 1019.46 1019.34 1019.34 1019.26 1019.22 1019.18 1019.10 1019.06 1019.06 1019.02 1018.94 1018.78 1018.62 1018.38 1018.26 1018.30 1018.42 1018.50
1024.78 1024.90 1025.06 1025.14 1025.22 1025.34 1025.42 1025.50 1025.54 1025.62 1025.66 1025.74 1025.78 1025.78 1025.78 1025.78 1025.70 1025.62 1025.58 1025.50 1025.42 1025.34 1025.22 1025.06 1025.06 1025.06 1024.98 1024.86 1024.78 1024.66 1024.54 1024.38 1024.26 1024.14 1024.06 1023.94 1023.78 1023.54 1023.30 1023.02 1022.86 1022.62 1022.34 1022.02 1021.74 1021.38 1021.02 1020.62 1020.26 1019.90 1019.54 1019.22 1019.18 1019.22 1019.18 1019.18 1019.10 1019.06 1018.98 1018.90 1018.86 1018.78 1018.62 1018.46 1018.30 1018.22 1018.22 1018.26 1018.38
1024.58 1024.66 1024.78 1024.90 1025.02 1025.10 1025.18 1025.22 1025.30 1025.38 1025.50 1025.54 1025.62 1025.62 1025.62 1025.58 1025.54 1025.46 1025.34 1025.26 1025.18 1025.06 1024.90 1024.90 1024.90 1024.86 1024.78 1024.66 1024.58 1024.50 1024.38 1024.22 1024.06 1023.98 1023.90 1023.78 1023.54 1023.30 1023.06 1022.86 1022.66 1022.42 1022.14 1021.82 1021.50 1021.14 1020.78 1020.42 1020.06 1019.74 1019.34 1019.06 1019.06 1019.14 1019.14 1019.06 1018.98 1018.90 1018.90 1018.86 1018.78 1018.62 1018.46 1018.26 1018.10 1018.06 1018.06 1018.06 1018.18
1024.34 1024.46 1024.54 1024.62 1024.78 1024.82 1024.90 1025.02 1025.14 1025.22 1025.30 1025.38 1025.42 1025.42 1025.42 1025.42 1025.34 1025.22 1025.14 1025.06 1024.94 1024.90 1024.82 1024.78 1024.78 1024.70 1024.62 1024.50 1024.42 1024.34 1024.22 1024.06 1023.94 1023.78 1023.66 1023.50 1023.34 1023.14 1022.90 1022.66 1022.50 1022.26 1021.94 1021.62 1021.26 1020.94 1020.58 1020.22 1019.86 1019.50 1019.22 1018.98 1019.06 1019.10 1019.10 1018.98 1018.90 1018.86 1018.82 1018.78 1018.66 1018.50 1018.34 1018.10 1017.90 1017.86 1017.90 1017.94 1018.02
1024.14 1024.22 1024.26 1024.34 1024.46 1024.54 1024.66 1024.82 1024.90 1025.02 1025.10 1025.22 1025.22 1025.22 1025.22 1025.18 1025.10 1025.02 1024.94 1024.86 1024.78 1024.74 1024.70 1024.66 1024.62 1024.54 1024.50 1024.38 1024.26 1024.14 1024.02 1023.90 1023.78 1023.58 1023.38 1023.26 1023.14 1022.98 1022.78 1022.54 1022.30 1022.06 1021.78 1021.42 1021.06 1020.74 1020.38 1020.02 1019.62 1019.30 1019.06 1018.98 1019.06 1019.06 1018.98 1018.90 1018.86 1018.78 1018.78 1018.70 1018.58 1018.38 1018.18 1017.94 1017.78 1017.70 1017.70 1017.78 1017.86
1023.86 1023.94 1024.06 1024.10 1024.18 1024.30 1024.46 1024.58 1024.70 1024.82 1024.90 1024.94 1024.98 1024.98 1024.98 1024.94 1024.90 1024.86 1024.74 1024.62 1024.62 1024.54 1024.50 1024.46 1024.38 1024.34 1024.26 1024.18 1024.06 1023.98 1023.82 1023.62 1023.50 1023.42 1023.30 1023.18 1023.02 1022.86 1022.62 1022.38 1022.14 1021.90 1021.58 1021.22 1020.90 1020.62 1020.22 1019.86 1019.46 1019.18 1019.02 1018.98 1018.98 1018.98 1018.94 1018.90 1018.82 1018.78 1018.78 1018.66 1018.50 1018.34 1018.10 1017.90 1017.74 1017.62 1017.62 1017.70 1017.78
1023.58 1023.70 1023.78 1023.82 1023.90 1024.06 1024.22 1024.34 1024.50 1024.62 1024.70 1024.78 1024.74 1024.74 1024.74 1024.74 1024.70 1024.62 1024.54 1024.42 1024.34 1024.34 1024.26 1024.22 1024.18 1024.10 1024.06 1023.94 1023.90 1023.82 1023.66 1023.50 1023.38 1023.26 1023.14 1022.98 1022.86 1022.66 1022.46 1022.22 1021.98 1021.74 1021.42 1021.10 1020.78 1020.50 1020.14 1019.70 1019.30 1019.06 1018.94 1018.94 1018.98 1018.94 1018.90 1018.86 1018.82 1018.78 1018.74 1018.62 1018.50 1018.34 1018.14 1017.90 1017.74 1017.66 1017.62 1017.70 1017.70
1023.26 1023.34 1023.46 1023.54 1023.66 1023.78 1023.94 1024.10 1024.26 1024.38 1024.50 1024.50 1024.50 1024.50 1024.50 1024.50 1024.46 1024.38 1024.30 1024.22 1024.18 1024.14 1024.10 1024.06 1024.02 1023.94 1023.90 1023.78 1023.74 1023.62 1023.50 1023.34 1023.26 1023.14 1022.98 1022.82 1022.70 1022.54 1022.34 1022.06 1021.86 1021.58 1021.30 1021.02 1020.70 1020.38 1020.02 1019.58 1019.18 1018.94 1018.90 1018.90 1018.90 1018.90 1018.86 1018.82 1018.82 1018.78 1018.70 1018.62 1018.50 1018.34 1018.18 1017.94 1017.78 1017.74 1017.70 1017.66 1017.62
1022.90 1023.06 1023.14 1023.26 1023.38 1023.54 1023.66 1023.82 1023.98 1024.14 1024.22 1024.22 1024.22 1024.22 1024.26 1024.26 1024.22 1024.18 1024.06 1024.02 1024.06 1024.06 1023.98 1023.90 1023.86 1023.78 1023.74 1023.62 1023.54 1023.42 1023.34 1023.22 1023.10 1022.98 1022.86 1022.66 1022.54 1022.38 1022.18 1021.98 1021.74 1021.50 1021.22 1020.90 1020.62 1020.30 1019.90 1019.50 1019.10 1018.90 1018.86 1018.82 1018.82 1018.78 1018.78 1018.78 1018.78 1018.74 1018.66 1018.62 1018.50 1018.34 1018.18 1018.02 1017.82 1017.78 1017.70 1017.62 1017.50
1022.62 1022.74 1022.86 1022.94 1023.10 1023.22 1023.38 1023.54 1023.74 1023.82 1023.86 1023.90 1023.90 1023.94 1023.98 1024.02 1023.98 1023.94 1023.90 1023.78 1023.86 1023.86 1023.82 1023.78 1023.70 1023.62 1023.54 1023.42 1023.34 1023.22 1023.10 1023.06 1022.94 1022.82 1022.70 1022.58 1022.42 1022.30 1022.10 1021.86 1021.62 1021.38 1021.14 1020.86 1020.54 1020.18 1019.78 1019.38 1019.06 1018.86 1018.78 1018.78 1018.78 1018.74 1018.74 1018.74 1018.74 1018.66 1018.62 1018.54 1018.50 1018.34 1018.18 1018.06 1017.90 1017.78 1017.70 1017.58 1017.34
1022.30 1022.46 1022.58 1022.66 1022.78 1022.90 1023.06 1023.26 1023.38 1023.50 1023.54 1023.58 1023.66 1023.70 1023.74 1023.74 1023.74 1023.70 1023.62 1023.58 1023.62 1023.62 1023.62 1023.58 1023.50 1023.38 1023.30 1023.22 1023.10 1023.02 1022.90 1022.82 1022.74 1022.66 1022.58 1022.46 1022.34 1022.10 1021.90 1021.74 1021.50 1021.30 1021.06 1020.78 1020.50 1020.14 1019.74 1019.34 1019.06 1018.78 1018.66 1018.62 1018.62 1018.62 1018.62 1018.66 1018.66 1018.62 1018.62 1018.54 1018.42 1018.26 1018.14 1018.06 1017.98 1017.82 1017.70 1017.58 1017.30
1021.98 1022.18 1022.30 1022.38 1022.46 1022.58 1022.74 1022.90 1023.02 1023.10 1023.22 1023.34 1023.38 1023.46 1023.50 1023.50 1023.46 1023.42 1023.38 1023.34 1023.38 1023.42 1023.38 1023.34 1023.26 1023.18 1023.06 1022.98 1022.90 1022.86 1022.78 1022.62 1022.58 1022.50 1022.42 1022.30 1022.14 1021.90 1021.70 1021.58 1021.42 1021.26 1021.06 1020.74 1020.42 1020.06 1019.66 1019.30 1018.98 1018.74 1018.58 1018.54 1018.54 1018.54 1018.54 1018.58 1018.62 1018.62 1018.62 1018.50 1018.34 1018.18 1018.06 1018.06 1017.94 1017.86 1017.78 1017.62 1017.50
1021.70 1021.90 1022.02 1022.06 1022.18 1022.26 1022.38 1022.50 1022.62 1022.78 1022.90 1023.06 1023.14 1023.18 1023.18 1023.18 1023.22 1023.22 1023.22 1023.22 1023.22 1023.22 1023.18 1023.14 1023.06 1023.02 1022.90 1022.78 1022.78 1022.70 1022.62 1022.50 1022.38 1022.30 1022.22 1022.06 1021.98 1021.78 1021.62 1021.50 1021.34 1021.22 1020.98 1020.70 1020.34 1020.02 1019.62 1019.30 1018.98 1018.66 1018.50 1018.42 1018.46 1018.46 1018.46 1018.46 1018.50 1018.54 1018.54 1018.46 1018.26 1018.10 1018.02 1017.98 1017.90 1017.82 1017.78 1017.62 1017.50
Wind_Speed
4 4 4 4 4 4 4 4 4 4 4 3 3 3 3 3 3 4 3 3 3 4 4 4 4 5 5 6 7 7 7 7 7 8 8 8 7 7 7 7 6 6 7 7 7 6 6 6 5 5 5 5 6 6 6 6 6 7 7 6 6 6 7 8 8 9 9 9 7
5 5 5 5 5 4 3 3 4 4 4 3 3 3 3 3 3 4 3 3 3 4 4 4 4 5 6 7 7 7 7 7 7 7 7 7 7 7 7 6 7 7 7 7 7 6 6 6 5 5 5 5 6 6 7 7 6 6 7 8 6 6 6 7 8 9 9 9 7
4 4 4 4 4 3 3 3 3 3 3 3 3 3 3 3 3 3 4 4 4 4 4 4 5 5 6 7 7 7 7 7 7 7 7 7 7 7 7 7 7 7 7 7 6 6 6 6 6 6 6 6 6 6 7 7 6 6 6 7 6 6 6 7 8 8 7 7 7
4 4 4 4 5 5 4 4 4 4 4 4 3 3 3 3 3 3 4 4 4 4 4 5 5 5 6 7 7 7 7 7 7 7 7 7 7 7 7 7 7 7 7 7 7 7 7 6 5 5 5 6 6 7 6 6 6 6 6 6 6 6 7 7 7 7 6 7 7
4 4 5 5 6 6 5 4 4 4 4 3 3 3 3 3 3 3 3 4 4 4 5 5 5 6 6 7 7 7 7 7 8 8 7 7 7 7 7 7 7 7 7 7 7 7 7 6 5 5 5 5 5 6 6 6 6 6 6 6 6 6 7 7 7 6 6 6 6
4 5 5 5 6 5 5 4 4 4 4 3 3 3 3 3 3 4 4 4 5 5 6 7 7 7 7 7 7 7 7 7 7 7 7 7 7 7 7 8 8 7 7 7 8 8 7 6 5 4 5 5 5 6 6 7 7 7 7 8 8 7 7 7 6 6 7 7 8
5 5 5 5 5 4 4 4 4 3 3 3 3 4 5 5 5 5 5 5 5 5 6 7 7 7 7 6 7 7 7 7 7 7 7 7 7 8 8 8 8 7 8 8 8 7 7 6 5 5 5 6 6 6 7 7 7 8 9 9 9 7 7 7 6 6 7 9 10
5 5 5 5 5 5 4 4 4 3 3 3 5 6 6 6 6 6 6 5 5 5 5 5 6 6 6 6 7 7 7 7 7 7 7 7 8 8 8 8 8 8 8 8 8 7 7 6 5 5 5 5 6 7 8 8 8 9 10 10 10 8 7 6 6 6 8 9 10
3 4 4 4 4 4 4 4 4 4 4 5 6 6 6 6 6 6 6 5 5 5 5 5 6 6 7 7 7 7 7 7 7 7 7 7 8 8 8 7 8 9 9 8 8 7 7 6 5 5 5 5 6 7 8 9 10 10 11 10 10 9 8 7 7 8 8 9 10
4 4 4 4 4 4 4 4 5 5 5 6 6 6 6 7 7 6 5 5 5 5 5 5 5 6 6 7 7 7 7 7 7 7 8 8 8 8 8 8 9 9 9 8 7 7 7 6 6 6 7 6 7 9 10 10 11 11 11 10 10 10 11 10 9 9 9 9 10
5 5 4 4 4 5 5 4 4 5 5 5 5 6 6 7 6 6 5 5 5 5 5 5 5 6 6 6 7 7 7 7 7 7 8 8 8 8 8 9 9 10 9 8 7 6 6 6 7 8 9 8 8 9 10 10 11 12 12 11 11 12 12 12 11 10 9 9 10
6 5 4 4 5 5 5 5 4 4 5 5 5 5 5 5 5 5 5 5 5 5 5 5 5 5 6 6 6 7 7 7 7 8 8 9 9 9 9 9 10 10 9 9 7 6 7 7 9 10 11 11 9 9 10 11 11 12 13 13 13 13 12 12 11 10 9 9 10
5 5 4 4 5 5 4 5 4 4 5 5 5 5 5 5 5 5 5 5 5 5 5 5 5 5 6 6 6 7 7 7 8 8 8 9 9 9 9 10 10 10 9 9 8 7 8 8 10 11 11 12 10 10 11 12 12 13 14 14 14 14 13 13 11 10 10 10 11
5 5 5 5 5 5 5 5 4 4 5 6 6 6 5 5 5 5 4 4 5 5 5 5 5 6 6 6 7 7 7 8 8 9 9 9 9 10 10 9 9 9 9 8 8 9 9 10 10 11 12 12 12 12 13 13 13 13 14 15 15 15 15 13 11 10 10 11 11
5 5 5 5 5 5 5 5 4 4 5 5 5 5 5 4 5 4 4 4 5 5 5 5 6 6 7 7 7 7 8 8 8 9 9 10 10 10 10 9 9 9 9 9 9 10 10 10 11 11 11 12 13 13 14 14 14 14 15 15 16 16 15 12 10 9 10 11 11
6 5 5 5 5 5 5 5 4 4 4 5 4 4 4 4 4 4 4 5 5 5 5 6 6 6 6 7 7 7 8 8 8 8 9 9 10 10 10 9 10 10 10 10 10 10 10 10 10 11 11 12 13 14 15 15 15 16 16 16 16 16 14 11 9 9 10 11 11
6 6 5 5 5 5 5 5 4 4 4 4 4 4 4 4 4 4 5 6 5 5 6 7 6 6 6 7 7 7 7 7 8 8 8 9 9 10 10 10 10 10 11 11 11 11 11 11 11 11 11 12 13 14 15 16 16 16 17 17 16 14 12 9 9 10 11 11 12
7 6 6 6 6 6 6 6 5 5 5 5 5 5 4 4 4 4 5 6 6 6 7 8 7 6 6 7 7 6 6 7 8 8 9 9 9 10 10 11 11 11 11 11 11 11 12 12 11 11 11 12 13 14 15 15 16 16 17 17 16 13 10 8 9 10 11 11 12
7 7 7 7 7 7 7 7 6 5 5 5 5 4 4 5 5 5 5 6 6 7 7 8 7 7 7 7 7 7 7 7 8 9 9 9 9 10 10 11 11 11 11 11 11 11 11 11 12 12 12 13 14 14 15 15 16 16 17 17 15 11 8 7 9 10 11 11 11
8 7 7 7 7 7 7 7 6 5 5 4 4 5 5 5 5 5 6 7 7 7 7 7 7 7 7 8 8 8 7 7 8 8 9 9 9 10 10 11 11 11 11 10 10 10 11 11 12 12 13 14 15 15 16 16 16 16 17 16 13 9 7 8 10 11 11 11 11
8 8 8 7 7 7 7 6 5 5 4 4 5 5 6 6 6 6 7 7 7 7 7 7 8 8 8 8 8 8 8 7 7 8 9 9 10 10 11 11 11 11 10 10 10 10 10 11 12 13 14 15 15 16 16 16 16 16 16 15 10 7 8 9 10 10 11 11 11
8 7 7 7 7 6 6 5 5 4 4 4 5 5 6 6 6 7 7 7 6 6 7 7 8 8 8 8 9 9 8 8 8 8 9 9 9 10 10 10 10 10 10 10 10 10 10 11 13 14 14 14 15 16 16 16 16 16 16 13 9 8 9 10 10 10 10 10 11
7 6 6 6 6 6 6 5 4 4 4 4 5 5 6 6 7 7 7 6 6 7 7 7 7 8 8 8 8 9 9 9 9 9 9 9 9 9 9 9 9 9 10 9 9 9 10 11 12 13 14 14 15 16 17 17 17 16 14 10 8 8 9 9 9 9 10 10 10
7 6 5 5 5 5 5 4 4 4 4 5 5 6 6 7 7 7 7 7 7 7 7 7 7 7 8 8 8 8 9 9 10 10 9 9 9 9 9 8 8 8 9 8 9 10 11 11 11 12 12 13 14 14 15 15 14 12 10 8 7 8 8 8 9 9 10 10 10
8 7 6 6 5 5 4 4 4 5 5 6 6 6 6 7 7 7 7 7 7 8 7 7 7 7 7 7 8 8 8 8 9 9 9 9 9 9 8 8 8 7 7 8 14 18 20 18 15 13 12 13 13 14 13 12 11 10 9 7 7 7 7 7 9 10 10 10 9
8 7 7 7 5 5 5 5 5 5 5 5 5 6 6 7 7 6 7 7 7 7 7 7 7 7 7 7 7 8 8 7 8 8 9 9 9 9 8 8 8 7 7 10 17 21 23 24 23 21 17 14 14 13 12 11 11 10 7 6 6 6 6 7 9 10 10 9 9
8 8 7 7 6 6 6 6 5 5 5 5 5 6 7 7 6 6 7 7 7 7 6 6 6 7 7 6 7 7 7 7 7 8 8 9 9 9 9 9 8 7 8 14 20 23 24 24 25 25 22 17 14 13 12 11 10 7 5 4 5 6 7 9 10 11 11 9 8
8 8 7 7 7 7 6 5 5 5 5 5 6 6 7 7 7 7 6 6 6 5 5 5 5 5 5 5 6 7 8 8 7 7 8 8 9 9 9 9 8 9 12 18 22 24 24 25 26 26 26 22 16 13 11 10 8 6 4 4 5 7 8 10 11 10 9 7 7
9 8 8 7 7 7 6 5 6 6 6 6 6 6 6 6 6 6 6 5 5 5 5 5 4 4 4 5 6 7 7 7 7 7 7 8 8 9 10 10 10 12 16 21 23 24 24 25 26 27 28 27 19 13 10 7 6 5 4 4 5 6 8 10 10 8 6 5 5
9 8 8 8 8 7 7 6 6 6 5 5 5 6 6 6 7 6 6 6 6 5 5 5 4 4 5 6 6 6 6 7 7 7 7 8 8 9 10 11 11 12 16 21 23 24 24 25 26 27 28 29 22 15 9 5 5 5 5 4 5 7 9 10 10 9 6 5 5
9 9 9 9 8 8 7 6 6 5 5 5 6 6 6 7 7 7 6 5 5 6 5 4 5 6 6 6 5 6 6 7 7 7 7 8 10 11 11 12 11 13 16 21 23 24 25 25 26 27 28 29 21 13 6 5 4 4 4 5 6 7 8 10 9 8 6 6 5
9 9 9 9 9 8 7 6 5 5 5 6 6 7 7 7 7 6 5 4 4 5 5 5 5 6 6 6 5 6 6 7 7 7 8 8 9 10 10 12 12 13 16 21 23 24 25 26 26 27 28 27 18 10 5 4 4 4 5 5 6 7 8 8 7 6 6 6 5
10 10 10 9 9 8 7 6 6 5 6 6 6 7 7 7 6 5 5 4 4 4 4 5 5 5 5 6 5 6 6 7 8 9 9 9 10 10 11 11 11 13 17 22 24 24 25 26 26 27 26 23 13 7 4 4 4 4 4 5 6 8 9 9 8 6 5 5 4
11 10 10 10 9 8 7 6 6 6 6 6 7 7 7 6 6 6 5 4 4 4 4 4 4 4 5 5 5 6 7 8 8 8 8 9 9 10 10 10 9 12 18 23 24 24 25 26 27 26 23 17 8 4 3 4 4 4 4 5 7 8 9 10 8 5 4 4 3
11 11 11 10 9 8 7 6 6 6 6 7 7 8 7 6 6 6 5 5 4 4 4 4 4 4 4 5 5 5 7 8 8 8 8 8 9 9 10 11 11 14 19 23 23 24 25 26 27 25 20 11 5 3 3 3 3 4 5 6 7 8 10 10 7 4 2 3 3
12 12 11 10 9 8 8 7 7 6 7 8 8 8 7 6 6 5 5 5 4 4 4 4 3 3 4 5 5 6 6 7 8 8 8 8 8 9 10 11 11 14 18 22 23 24 24 25 26 23 17 7 3 2 2 2 3 4 5 5 6 8 9 9 7 4 2 2 4
12 12 12 11 10 9 8 8 7 7 8 8 8 7 7 6 5 4 4 4 4 4 4 4 4 4 4 5 5 6 6 7 7 8 8 9 8 9 9 10 11 13 16 20 22 23 24 25 25 21 14 4 2 2 2 2 2 3 4 5 5 6 7 7 6 4 3 3 4
12 12 12 11 10 10 9 8 8 9 9 9 8 7 6 5 4 4 4 4 4 4 4 4 4 5 5 5 6 6 7 7 7 7 8 8 8 8 9 9 9 11 14 18 21 23 23 24 25 21 13 3 2 2 2 2 2 3 3 4 4 5 5 6 6 5 4 5 8
13 12 12 11 11 10 9 9 9 9 9 8 7 6 6 5 4 4 4 4 4 4 4 4 5 5 6 6 6 6 6 7 7 7 7 7 8 9 9 9 9 10 13 17 20 22 23 24 24 21 15 5 3 2 2 2 2 2 3 3 3 4 5 5 5 5 6 7 12
13 12 12 11 11 10 10 10 10 10 9 7 7 7 6 5 5 5 4 4 4 4 4 4 5 6 6 7 7 6 6 7 7 7 7 7 8 10 11 10 9 10 13 16 19 21 22 23 23 21 16 7 4 3 3 2 1 2 3 3 3 3 4 4 4 5 5 6 10
12 12 12 12 11 11 11 11 10 9 8 7 7 7 6 5 5 4 4 4 4 4 4 5 5 6 6 7 6 6 6 7 7 7 7 7 8 9 10 9 9 9 11 13 17 20 21 22 23 21 17 10 5 4 3 2 1 1 2 3 3 3 4 4 4 4 4 5 5
Wind_Direction
200 200 202 204 209 213 218 224 228 228 225 221 227 234 240 244 250 254 256 257 261 267 271 272 271 272 272 271 270 271 273 275 276 277 279 281 282 283 284 285 285 286 286 287 288 290 292 294 296 297 298 298 298 298 298 298 297 296 296 297 300 301 301 300 297 295 295 296 296
203 204 208 214 220 221 221 223 231 233 231 224 226 230 234 239 246 252 256 257 261 266 271 275 274 273 273 273 272 273 274 276 275 277 279 281 281 282 283 284 285 285 286 286 288 290 292 294 294 296 297 297 298 299 298 298 297 297 297 299 300 301 301 298 294 293 293 294 294
202 205 208 215 219 220 221 222 227 231 233 234 234 234 235 239 246 252 258 261 262 266 271 275 275 274 274 274 274 273 273 273 275 277 279 281 282 283 284 285 285 286 286 287 287 288 289 291 292 294 295 297 298 298 297 297 297 297 298 299 300 301 299 295 292 292 292 292 292
202 202 206 212 216 218 220 221 225 228 232 235 237 237 238 243 249 256 262 266 269 269 271 272 275 276 276 276 275 274 274 275 278 280 283 284 285 285 284 284 285 285 285 285 285 285 286 286 289 291 293 293 293 292 293 295 297 297 297 298 298 296 294 291 290 290 290 290 290
207 207 208 210 213 215 217 217 219 223 228 230 236 242 247 250 255 259 266 271 271 270 269 271 274 277 278 277 277 278 279 280 285 287 288 288 286 285 284 283 282 282 283 284 284 285 285 285 287 288 288 288 288 287 288 289 293 294 295 296 295 294 291 290 290 289 290 291 293
210 213 213 212 212 214 216 215 214 218 223 226 237 246 253 256 259 261 264 266 268 270 272 274 277 280 281 281 282 284 285 286 288 288 287 286 286 285 284 283 282 282 283 284 284 284 284 284 286 288 288 288 288 286 286 287 290 292 293 294 293 293 292 291 290 291 292 293 294
205 209 211 212 209 210 212 214 213 216 221 226 236 244 248 252 254 256 258 263 269 273 275 278 279 282 283 285 286 287 288 289 287 286 285 285 286 285 285 284 283 283 283 284 285 284 283 281 284 287 290 292 292 290 288 287 288 290 291 292 292 292 292 290 290 291 293 293 294
202 204 206 207 205 206 210 215 218 223 230 236 238 242 244 247 250 254 258 265 269 272 274 277 276 276 277 281 284 287 288 289 289 288 287 286 286 285 285 284 285 285 284 284 283 282 281 281 283 286 289 292 291 290 289 288 288 288 289 290 291 291 290 288 288 289 291 292 293
207 209 208 206 206 208 212 218 221 226 233 239 240 240 241 245 248 253 258 264 268 270 272 275 275 276 278 281 284 286 289 290 290 289 288 287 287 287 287 287 288 288 287 286 283 281 280 281 285 286 287 288 289 288 288 288 287 286 286 287 289 289 289 288 288 288 289 291 291
210 212 211 212 217 217 218 223 224 226 230 236 238 240 244 251 256 257 258 263 269 273 275 274 277 280 282 283 285 286 287 288 288 288 288 288 288 288 288 289 290 290 289 288 285 283 283 284 287 287 287 286 286 286 286 286 285 284 285 285 287 289 289 288 287 287 288 288 288
208 209 209 212 218 220 221 225 229 229 230 233 238 242 246 255 260 262 263 267 272 273 272 271 276 280 283 284 285 286 286 287 287 288 287 288 288 288 287 287 288 288 288 286 286 287 288 288 289 288 287 286 286 285 285 284 284 284 284 284 285 285 285 285 285 286 287 287 286
206 207 208 211 214 216 219 223 228 231 232 235 239 243 246 250 253 257 261 267 268 269 271 271 274 277 280 284 284 285 286 286 286 286 287 287 287 287 286 286 286 286 286 285 285 286 288 289 289 289 288 288 287 286 285 285 285 285 284 284 283 282 280 280 282 283 285 286 286
202 205 209 213 214 215 218 223 227 231 233 236 240 243 245 248 249 252 256 261 263 267 271 275 276 276 278 280 282 283 285 285 285 286 286 287 287 287 287 286 286 286 285 285 284 285 285 286 287 287 288 289 288 286 285 284 284 284 284 283 282 279 277 276 279 281 283 284 285
199 203 208 212 213 215 218 224 228 230 233 236 239 241 243 247 248 249 252 256 261 266 271 276 277 278 277 277 279 281 282 284 285 286 287 287 288 288 288 287 286 286 286 286 285 284 284 285 285 286 287 287 287 286 285 284 283 282 280 280 278 277 276 275 277 280 281 282 283
200 204 209 210 213 216 220 224 228 230 232 236 238 239 240 244 247 249 252 258 262 266 271 275 277 277 277 276 277 279 281 283 285 286 287 288 288 288 287 287 287 286 286 286 286 285 284 283 283 284 284 284 284 284 284 283 282 280 278 276 275 275 274 274 275 276 277 278 280
203 207 210 211 214 218 221 224 227 229 230 234 236 236 238 242 246 251 256 260 264 268 271 272 274 276 278 278 278 279 281 283 285 286 287 287 288 288 287 286 286 286 286 286 285 285 283 282 281 281 280 280 281 281 282 282 281 279 278 275 274 274 274 272 271 270 271 273 275
206 209 211 211 215 219 222 223 226 227 228 232 234 235 237 241 247 254 259 262 265 269 271 271 272 275 278 280 280 281 282 284 285 285 285 286 286 286 286 286 285 284 283 283 283 283 282 281 280 278 278 277 278 278 279 279 279 279 277 276 275 274 272 268 265 264 266 269 271
208 210 211 211 216 219 221 223 224 227 228 231 234 236 238 242 248 254 259 262 264 266 269 271 272 274 275 277 279 280 281 283 284 284 284 283 284 284 284 284 283 282 281 281 280 280 280 280 280 278 277 276 276 277 277 278 278 278 277 277 277 275 270 257 254 256 260 264 267
209 210 211 213 215 218 220 222 223 225 228 230 232 236 241 244 248 254 260 263 262 263 265 269 272 273 274 274 276 278 280 281 282 282 282 281 282 282 281 281 281 280 279 278 278 278 278 279 279 278 277 276 276 277 277 277 277 277 277 277 279 276 262 241 244 248 254 258 263
209 210 211 212 214 216 218 220 221 223 226 228 233 238 244 247 249 253 258 261 261 262 263 266 270 273 274 275 277 278 280 280 280 279 279 279 280 279 279 279 279 279 279 277 277 277 277 277 277 276 276 276 276 276 276 276 275 275 276 278 279 270 245 229 238 245 251 256 259
209 209 209 209 210 212 215 217 218 220 224 231 235 240 245 249 252 253 255 258 261 262 263 264 266 270 273 276 278 279 280 281 279 277 277 278 277 277 277 277 278 280 280 279 278 278 277 276 276 275 275 274 274 273 273 272 272 272 273 276 273 251 225 224 234 243 250 255 259
208 207 207 206 207 209 212 213 215 219 225 232 237 241 246 251 253 254 255 258 261 262 262 262 263 266 269 272 275 278 280 283 281 278 277 277 277 277 277 278 279 281 281 281 280 279 277 276 274 273 272 272 271 269 268 266 265 266 267 268 254 229 216 221 231 240 248 254 259
206 204 204 204 205 208 211 212 215 221 228 236 241 245 249 253 255 257 258 260 262 262 262 262 262 264 266 268 271 275 279 282 282 281 279 277 277 278 279 280 280 280 280 280 280 279 277 275 273 271 269 268 266 265 263 262 260 260 260 255 233 217 214 220 228 237 246 253 259
202 202 202 201 202 205 208 210 216 224 232 239 243 247 251 255 259 261 262 263 262 261 261 262 264 266 268 271 272 274 276 278 281 281 281 280 280 280 280 281 280 279 279 280 283 285 285 282 277 274 273 271 270 269 267 265 265 264 262 249 228 219 220 224 230 237 243 250 257
200 199 200 199 200 203 206 210 219 227 234 240 245 249 254 258 260 262 263 263 262 260 260 262 266 270 273 275 274 274 274 274 276 279 282 284 283 283 283 284 283 282 281 282 289 293 295 296 295 292 289 286 285 283 282 282 285 282 273 253 237 231 233 237 239 241 243 247 252
197 198 199 199 199 202 208 214 220 227 234 241 247 253 256 259 260 261 261 262 261 260 260 263 268 273 276 277 276 276 275 274 275 277 280 284 286 287 287 287 287 285 285 287 294 298 301 303 304 303 301 297 295 295 297 303 306 299 282 258 246 242 244 248 250 249 247 247 249
196 198 199 198 198 204 210 214 218 226 234 242 249 254 257 259 260 260 260 260 260 261 263 266 269 274 278 279 278 277 277 276 277 278 279 281 285 287 288 289 288 287 288 293 299 303 306 307 307 307 306 302 302 304 309 318 322 315 291 257 246 244 246 250 253 252 250 247 249
197 198 197 196 200 206 210 211 217 227 235 243 248 254 258 260 259 259 258 258 261 265 269 271 271 273 277 278 277 275 275 276 279 280 281 281 283 286 288 290 290 290 294 299 305 307 309 309 309 308 308 307 308 313 320 328 332 325 295 253 246 248 252 258 261 259 255 247 249
197 196 195 196 203 207 209 211 219 227 235 242 248 253 258 260 259 258 258 260 264 268 271 272 274 276 277 276 275 276 277 278 279 281 284 287 288 288 289 290 291 294 299 304 308 309 310 310 310 309 310 311 315 320 328 337 336 325 302 273 262 261 265 271 275 275 267 250 249
196 194 194 198 203 206 210 214 219 226 234 242 248 254 258 260 261 261 261 262 263 264 264 267 273 275 275 273 275 278 280 280 281 284 287 289 291 292 292 293 295 297 302 306 308 310 311 311 312 312 312 315 320 326 335 340 330 319 308 295 276 271 273 279 282 279 269 249 247
194 194 195 198 202 206 211 214 219 226 234 242 248 254 258 260 261 261 260 260 260 262 266 269 273 274 274 274 276 278 280 282 284 286 288 288 291 293 294 296 297 298 301 306 309 311 313 314 314 314 315 319 327 334 341 332 323 317 311 301 287 282 283 287 287 278 261 242 242
194 194 195 198 203 207 211 214 219 226 235 242 248 253 256 258 258 257 256 256 261 267 272 275 276 277 278 280 280 280 280 282 285 287 288 289 291 293 296 298 298 299 303 307 311 313 315 316 316 316 319 327 335 340 336 319 316 315 311 304 299 299 300 303 298 281 257 236 235
194 195 196 199 204 207 210 213 219 226 235 242 248 252 255 257 258 257 257 256 258 262 265 268 271 273 276 279 280 281 282 283 284 286 288 290 292 294 296 299 298 301 305 309 313 315 317 317 317 319 325 336 342 342 327 315 317 317 317 314 316 319 320 319 310 292 260 234 231
195 196 198 201 204 207 209 213 218 225 234 242 248 251 253 255 257 257 257 255 254 254 256 259 261 263 266 269 274 278 282 285 286 287 288 290 292 294 296 298 298 302 307 311 314 316 317 317 318 323 330 344 346 338 320 317 320 321 323 323 329 334 335 333 323 304 269 235 234
196 197 200 202 204 206 209 212 217 224 232 241 247 250 251 251 251 250 251 253 256 259 259 259 259 261 264 268 271 275 280 285 287 287 288 289 291 294 295 297 297 302 307 312 316 317 318 318 320 326 335 349 348 334 320 319 323 325 327 330 336 340 341 339 333 319 280 238 240
196 198 200 202 203 205 207 211 216 223 231 238 243 247 248 248 246 244 246 253 260 263 265 264 266 268 272 274 274 276 278 281 284 286 288 290 292 294 296 297 297 302 308 313 317 318 319 318 322 329 338 354 349 331 324 326 329 330 331 334 339 345 347 344 341 333 302 247 249
197 198 199 201 202 203 205 208 213 221 228 235 239 241 244 245 245 244 245 251 257 261 262 264 265 268 269 271 273 274 275 277 281 285 288 291 293 294 295 297 297 302 308 314 317 319 319 320 324 331 340 360 348 334 331 336 337 334 333 332 337 346 351 350 346 338 315 276 277
197 197 198 199 201 202 203 205 211 219 226 232 235 237 239 241 243 245 245 246 248 253 257 261 262 262 263 265 270 273 275 275 277 281 285 289 291 292 294 296 298 302 308 314 317 319 320 321 325 332 340 359 348 337 337 344 342 335 329 326 334 348 357 358 350 341 326 309 316
196 196 197 198 199 200 201 205 211 217 223 228 233 235 236 238 240 242 242 242 240 243 250 257 258 259 262 267 273 277 279 279 279 280 284 286 288 293 297 300 302 305 309 314 317 319 321 323 326 332 340 359 0 352 347 354 345 331 324 319 334 353 3 3 354 346 337 328 336
194 195 196 198 198 199 201 205 211 216 220 224 230 233 235 237 239 241 241 240 236 239 245 251 255 259 264 271 276 281 284 285 284 283 283 284 288 297 303 306 305 305 307 312 317 320 322 325 328 332 339 359 12 11 360 357 351 334 324 317 344 2 8 6 358 350 342 336 340
192 194 196 199 199 199 202 206 211 215 218 221 226 231 234 236 238 239 239 238 238 240 245 249 255 259 265 273 278 282 285 288 288 285 284 286 290 299 305 305 302 301 304 310 317 321 325 328 330 334 341 360 14 15 1 351 2 338 327 317 356 11 12 4 358 350 341 334 328